Time,TemperatureF,DewpointF,PressureIn,WindDirection,WindDirectionDegrees,WindSpeedMPH,WindSpeedGustMPH,Humidity,HourlyPrecipIn,Conditions,Clouds,dailyrainin,SoftwareType,DateUTC
2013-08-11 00:01:00,52.3,51.3,30.09,NE,44,0.0,1.0,96,0.00,,,0.00,meteohub,2013-08-11 04:01:00,
2013-08-11 00:02:00,52.2,51.1,30.09,NE,44,0.0,1.0,96,0.00,,,0.00,meteohub,2013-08-11 04:02:00,
2013-08-11 00:07:00,52.3,51.3,30.09,NE,44,0.0,1.0,96,0.00,,,0.00,meteohub,2013-08-11 04:07:00,
2013-08-11 00:13:00,52.2,51.3,30.09,NE,43,0.0,1.0,97,0.00,,,0.00,meteohub,2013-08-11 04:13:00,
2013-08-11 00:18:00,52.0,50.9,30.09,NE,44,0.0,1.0,96,0.00,,,0.00,meteohub,2013-08-11 04:18:00,
2013-08-11 00:23:00,52.0,50.9,30.09,NE,44,0.0,1.0,96,0.00,,,0.00,meteohub,2013-08-11 04:23:00,
2013-08-11 00:28:00,52.0,50.9,30.10,NE,44,0.0,0.0,96,0.00,,,0.00,meteohub,2013-08-11 04:28:00,
2013-08-11 00:33:00,52.0,51.1,30.10,NE,44,0.0,0.0,97,0.00,,,0.00,meteohub,2013-08-11 04:33:00,
2013-08-11 00:38:00,52.0,51.1,30.10,NE,44,0.0,1.0,97,0.00,,,0.00,meteohub,2013-08-11 04:38:00,
2013-08-11 00:43:00,52.0,51.1,30.10,NE,44,0.0,1.0,97,0.00,,,0.00,meteohub,2013-08-11 04:43:00,
2013-08-11 00:48:00,51.6,50.5,30.10,East,97,0.0,1.0,96,0.00,,,0.00,meteohub,2013-08-11 04:48:00,
2013-08-11 00:53:00,51.6,50.5,30.10,East,97,0.0,2.0,96,0.00,,,0.00,meteohub,2013-08-11 04:53:00,
2013-08-11 00:58:00,51.4,50.5,30.10,East,97,0.0,2.0,97,0.00,,,0.00,meteohub,2013-08-11 04:58:00,
2013-08-11 01:03:00,51.3,50.4,30.10,East,97,0.0,2.0,97,0.00,,,0.00,meteohub,2013-08-11 05:03:00,
2013-08-11 01:09:00,51.3,50.2,30.10,East,97,0.0,1.0,96,0.00,,,0.00,meteohub,2013-08-11 05:09:00,
2013-08-11 01:16:00,51.3,50.4,30.10,East,97,0.0,1.0,97,0.00,,,0.00,meteohub,2013-08-11 05:16:00,
2013-08-11 01:22:00,50.9,49.8,30.10,East,97,0.0,1.0,96,0.00,,,0.00,meteohub,2013-08-11 05:22:00,
2013-08-11 01:27:00,50.7,49.6,30.10,East,97,0.0,1.0,96,0.00,,,0.00,meteohub,2013-08-11 05:27:00,
2013-08-11 01:33:00,50.7,49.6,30.11,East,97,0.0,1.0,96,0.00,,,0.00,meteohub,2013-08-11 05:33:00,
2013-08-11 01:38:00,50.5,49.5,30.11,East,97,0.0,1.0,96,0.00,,,0.00,meteohub,2013-08-11 05:38:00,
2013-08-11 01:47:00,50.2,49.1,30.11,East,97,1.0,1.0,96,0.00,,,0.00,meteohub,2013-08-11 05:47:00,
2013-08-11 01:52:00,50.2,49.3,30.11,East,97,0.0,1.0,97,0.00,,,0.00,meteohub,2013-08-11 05:52:00,
2013-08-11 01:57:00,50.0,48.9,30.11,East,97,0.0,1.0,96,0.00,,,0.00,meteohub,2013-08-11 05:57:00,
2013-08-11 02:02:00,49.8,48.9,30.11,East,97,0.0,1.0,97,0.00,,,0.00,meteohub,2013-08-11 06:02:00,
2013-08-11 02:08:00,49.8,48.9,30.12,East,97,0.0,1.0,97,0.00,,,0.00,meteohub,2013-08-11 06:08:00,
2013-08-11 02:14:00,49.5,48.4,30.11,East,97,0.0,1.0,96,0.00,,,0.00,meteohub,2013-08-11 06:14:00,
2013-08-11 02:21:00,49.5,48.4,30.12,East,97,0.0,1.0,96,0.00,,,0.00,meteohub,2013-08-11 06:21:00,
2013-08-11 02:26:00,49.5,48.6,30.12,East,97,0.0,1.0,97,0.00,,,0.00,meteohub,2013-08-11 06:26:00,
2013-08-11 02:31:00,49.3,48.4,30.11,East,97,0.0,1.0,97,0.00,,,0.00,meteohub,2013-08-11 06:31:00,
2013-08-11 02:36:00,49.1,48.2,30.11,East,97,0.0,0.0,97,0.00,,,0.00,meteohub,2013-08-11 06:36:00,
2013-08-11 02:41:00,48.9,48.0,30.11,East,97,0.0,0.0,97,0.00,,,0.00,meteohub,2013-08-11 06:41:00,
2013-08-11 02:47:00,48.9,48.0,30.12,East,97,0.0,0.0,97,0.00,,,0.00,meteohub,2013-08-11 06:47:00,
2013-08-11 02:52:00,48.9,48.0,30.12,East,97,0.0,0.0,97,0.00,,,0.00,meteohub,2013-08-11 06:52:00,
2013-08-11 02:57:00,48.9,48.0,30.12,East,97,0.0,1.0,97,0.00,,,0.00,meteohub,2013-08-11 06:57:00,
2013-08-11 03:02:00,48.7,47.8,30.12,East,97,0.0,1.0,97,0.00,,,0.00,meteohub,2013-08-11 07:02:00,
2013-08-11 03:07:00,48.7,47.8,30.12,East,97,0.0,0.0,97,0.00,,,0.00,meteohub,2013-08-11 07:07:00,
2013-08-11 03:12:00,48.6,47.7,30.12,East,97,0.0,0.0,97,0.00,,,0.00,meteohub,2013-08-11 07:12:00,
2013-08-11 03:18:00,48.6,47.7,30.12,East,97,0.0,0.0,97,0.00,,,0.00,meteohub,2013-08-11 07:18:00,
2013-08-11 03:26:00,48.4,47.5,30.12,East,97,0.0,0.0,97,0.00,,,0.00,meteohub,2013-08-11 07:26:00,
2013-08-11 03:33:00,48.4,47.5,30.13,East,97,0.0,1.0,97,0.00,,,0.00,meteohub,2013-08-11 07:33:00,
2013-08-11 03:38:00,48.6,47.7,30.13,East,97,0.0,1.0,97,0.00,,,0.00,meteohub,2013-08-11 07:38:00,
2013-08-11 03:43:00,48.4,47.5,30.13,East,97,0.0,1.0,97,0.00,,,0.00,meteohub,2013-08-11 07:43:00,
2013-08-11 03:50:00,48.4,47.5,30.13,East,97,0.0,1.0,97,0.00,,,0.00,meteohub,2013-08-11 07:50:00,
2013-08-11 03:56:00,48.0,47.1,30.13,East,97,0.0,0.0,97,0.00,,,0.00,meteohub,2013-08-11 07:56:00,
2013-08-11 04:02:00,48.0,47.1,30.13,East,97,0.0,0.0,97,0.00,,,0.00,meteohub,2013-08-11 08:02:00,
2013-08-11 04:09:00,48.0,47.1,30.13,East,97,0.0,0.0,97,0.00,,,0.00,meteohub,2013-08-11 08:09:00,
2013-08-11 04:15:00,48.0,47.1,30.13,East,97,0.0,0.0,97,0.00,,,0.00,meteohub,2013-08-11 08:15:00,
2013-08-11 04:20:00,47.8,46.9,30.13,East,97,0.0,0.0,97,0.00,,,0.00,meteohub,2013-08-11 08:20:00,
2013-08-11 04:25:00,47.7,46.9,30.13,East,97,0.0,0.0,97,0.00,,,0.00,meteohub,2013-08-11 08:25:00,
2013-08-11 04:31:00,47.7,46.9,30.14,East,97,0.0,0.0,97,0.00,,,0.00,meteohub,2013-08-11 08:31:00,
2013-08-11 04:37:00,47.7,46.9,30.14,East,97,0.0,0.0,97,0.00,,,0.00,meteohub,2013-08-11 08:37:00,
2013-08-11 04:42:00,47.7,46.9,30.14,East,97,0.0,0.0,97,0.00,,,0.00,meteohub,2013-08-11 08:42:00,
2013-08-11 04:47:00,47.7,46.9,30.14,East,97,0.0,0.0,97,0.00,,,0.00,meteohub,2013-08-11 08:47:00,
2013-08-11 04:52:00,47.5,46.8,30.14,East,97,0.0,0.0,97,0.00,,,0.00,meteohub,2013-08-11 08:52:00,
2013-08-11 04:57:00,47.5,46.8,30.14,East,97,0.0,0.0,97,0.00,,,0.00,meteohub,2013-08-11 08:57:00,
2013-08-11 05:02:00,47.3,46.6,30.14,East,97,0.0,0.0,97,0.00,,,0.00,meteohub,2013-08-11 09:02:00,
2013-08-11 05:10:00,47.1,46.4,30.15,East,97,0.0,0.0,97,0.00,,,0.00,meteohub,2013-08-11 09:10:00,
2013-08-11 05:16:00,46.9,46.2,30.15,East,97,0.0,0.0,97,0.00,,,0.00,meteohub,2013-08-11 09:16:00,
2013-08-11 05:22:00,46.9,46.2,30.15,East,97,0.0,0.0,97,0.00,,,0.00,meteohub,2013-08-11 09:22:00,
2013-08-11 05:27:00,46.8,46.0,30.15,East,97,0.0,0.0,97,0.00,,,0.00,meteohub,2013-08-11 09:27:00,
2013-08-11 05:33:00,46.8,46.0,30.15,East,97,0.0,0.0,97,0.00,,,0.00,meteohub,2013-08-11 09:33:00,
2013-08-11 05:40:00,46.6,45.9,30.15,East,97,0.0,0.0,97,0.00,,,0.00,meteohub,2013-08-11 09:40:00,
2013-08-11 05:46:00,46.6,45.9,30.15,East,97,0.0,0.0,97,0.00,,,0.00,meteohub,2013-08-11 09:46:00,
2013-08-11 05:52:00,46.6,45.9,30.15,East,97,0.0,0.0,97,0.00,,,0.00,meteohub,2013-08-11 09:52:00,
2013-08-11 05:57:00,46.2,45.5,30.15,East,97,0.0,0.0,97,0.00,,,0.00,meteohub,2013-08-11 09:57:00,
2013-08-11 06:02:00,46.2,45.5,30.16,East,97,0.0,0.0,97,0.00,,,0.00,meteohub,2013-08-11 10:02:00,
2013-08-11 06:09:00,46.0,45.3,30.16,East,97,0.0,0.0,97,0.00,,,0.00,meteohub,2013-08-11 10:09:00,
2013-08-11 06:14:00,46.0,45.3,30.16,East,97,0.0,0.0,97,0.00,,,0.00,meteohub,2013-08-11 10:14:00,
2013-08-11 06:19:00,46.0,45.3,30.16,East,97,0.0,0.0,97,0.00,,,0.00,meteohub,2013-08-11 10:19:00,
2013-08-11 06:25:00,45.9,45.1,30.16,East,97,0.0,0.0,97,0.00,,,0.00,meteohub,2013-08-11 10:25:00,
2013-08-11 06:32:00,45.9,45.1,30.17,East,97,0.0,0.0,97,0.00,,,0.00,meteohub,2013-08-11 10:32:00,
2013-08-11 06:37:00,45.9,45.3,30.17,East,97,0.0,0.0,98,0.00,,,0.00,meteohub,2013-08-11 10:37:00,
2013-08-11 06:42:00,45.9,45.3,30.17,East,97,0.0,0.0,98,0.00,,,0.00,meteohub,2013-08-11 10:42:00,
2013-08-11 06:47:00,45.9,45.3,30.17,East,97,0.0,0.0,98,0.00,,,0.00,meteohub,2013-08-11 10:47:00,
2013-08-11 06:52:00,46.0,45.5,30.17,East,97,0.0,0.0,98,0.00,,,0.00,meteohub,2013-08-11 10:52:00,
2013-08-11 06:57:00,46.0,45.5,30.17,East,97,0.0,0.0,98,0.00,,,0.00,meteohub,2013-08-11 10:57:00,
2013-08-11 07:04:00,46.0,45.5,30.17,East,97,0.0,0.0,98,0.00,,,0.00,meteohub,2013-08-11 11:04:00,
2013-08-11 07:10:00,46.0,45.5,30.17,East,97,0.0,0.0,98,0.00,,,0.00,meteohub,2013-08-11 11:10:00,
2013-08-11 07:15:00,46.0,45.5,30.17,East,97,0.0,0.0,98,0.00,,,0.00,meteohub,2013-08-11 11:15:00,
2013-08-11 07:22:00,46.2,45.7,30.17,East,97,0.0,0.0,98,0.00,,,0.00,meteohub,2013-08-11 11:22:00,
2013-08-11 07:32:00,46.6,46.0,30.17,East,97,0.0,1.0,98,0.00,,,0.00,meteohub,2013-08-11 11:32:00,
2013-08-11 07:37:00,46.6,46.0,30.17,East,97,0.0,1.0,98,0.00,,,0.00,meteohub,2013-08-11 11:37:00,
2013-08-11 07:42:00,46.8,46.2,30.17,East,97,0.0,1.0,98,0.00,,,0.00,meteohub,2013-08-11 11:42:00,
2013-08-11 07:47:00,46.9,46.4,30.17,East,97,0.0,1.0,98,0.00,,,0.00,meteohub,2013-08-11 11:47:00,
2013-08-11 07:52:00,47.5,46.9,30.17,East,97,0.0,1.0,98,0.00,,,0.00,meteohub,2013-08-11 11:52:00,
2013-08-11 08:02:00,48.4,47.8,30.17,East,97,0.0,1.0,98,0.00,,,0.00,meteohub,2013-08-11 12:02:00,
2013-08-11 08:07:00,48.7,48.6,30.17,East,97,0.0,1.0,99,0.00,,,0.00,meteohub,2013-08-11 12:07:00,
2013-08-11 08:12:00,49.3,49.1,30.17,East,97,0.0,1.0,99,0.00,,,0.00,meteohub,2013-08-11 12:12:00,
2013-08-11 08:19:00,49.6,49.5,30.17,East,97,0.0,0.0,99,0.00,,,0.00,meteohub,2013-08-11 12:19:00,
2013-08-11 08:26:00,50.5,50.2,30.17,East,97,0.0,1.0,99,0.00,,,0.00,meteohub,2013-08-11 12:26:00,
2013-08-11 08:32:00,51.6,51.3,30.17,East,97,0.0,1.0,99,0.00,,,0.00,meteohub,2013-08-11 12:32:00,
2013-08-11 08:37:00,52.0,51.6,30.17,East,97,0.0,1.0,99,0.00,,,0.00,meteohub,2013-08-11 12:37:00,
2013-08-11 08:44:00,52.9,52.5,30.17,East,97,0.0,1.0,99,0.00,,,0.00,meteohub,2013-08-11 12:44:00,
2013-08-11 08:49:00,53.4,53.1,30.17,East,97,0.0,1.0,99,0.00,,,0.00,meteohub,2013-08-11 12:49:00,
2013-08-11 08:54:00,54.0,53.6,30.16,East,97,0.0,1.0,99,0.00,,,0.00,meteohub,2013-08-11 12:54:00,
2013-08-11 08:59:00,54.7,54.3,30.16,East,97,0.0,1.0,99,0.00,,,0.00,meteohub,2013-08-11 12:59:00,
2013-08-11 09:06:00,55.0,54.7,30.16,East,97,0.0,1.0,99,0.00,,,0.00,meteohub,2013-08-11 13:06:00,
2013-08-11 09:12:00,56.1,55.8,30.16,East,97,0.0,1.0,99,0.00,,,0.00,meteohub,2013-08-11 13:12:00,
2013-08-11 09:17:00,56.8,56.3,30.16,East,97,0.0,1.0,98,0.00,,,0.00,meteohub,2013-08-11 13:17:00,
2013-08-11 09:22:00,57.6,56.7,30.16,East,97,0.0,1.0,97,0.00,,,0.00,meteohub,2013-08-11 13:22:00,
2013-08-11 09:27:00,58.5,56.7,30.15,East,97,0.0,1.0,94,0.00,,,0.00,meteohub,2013-08-11 13:27:00,
2013-08-11 09:32:00,58.8,56.5,30.15,East,97,0.0,1.0,92,0.00,,,0.00,meteohub,2013-08-11 13:32:00,
2013-08-11 09:39:00,59.7,57.0,30.15,East,97,0.0,1.0,91,0.00,,,0.00,meteohub,2013-08-11 13:39:00,
2013-08-11 09:44:00,61.2,57.6,30.15,East,97,0.0,1.0,88,0.00,,,0.00,meteohub,2013-08-11 13:44:00,
2013-08-11 09:52:00,62.2,57.7,30.15,East,97,0.0,1.0,85,0.00,,,0.00,meteohub,2013-08-11 13:52:00,
2013-08-11 09:57:00,63.0,58.5,30.15,East,97,0.0,1.0,85,0.00,,,0.00,meteohub,2013-08-11 13:57:00,
2013-08-11 10:03:00,63.1,57.9,30.15,East,97,0.0,1.0,83,0.00,,,0.00,meteohub,2013-08-11 14:03:00,
2013-08-11 10:09:00,63.5,56.8,30.14,East,97,0.0,0.0,79,0.00,,,0.00,meteohub,2013-08-11 14:09:00,
2013-08-11 10:15:00,64.2,56.1,30.14,East,97,0.0,1.0,75,0.00,,,0.00,meteohub,2013-08-11 14:15:00,
2013-08-11 10:22:00,66.0,59.4,30.14,East,97,0.0,1.0,79,0.00,,,0.00,meteohub,2013-08-11 14:22:00,
2013-08-11 10:28:00,66.7,58.6,30.14,East,97,0.0,1.0,75,0.00,,,0.00,meteohub,2013-08-11 14:28:00,
2013-08-11 10:36:00,67.6,57.9,30.14,East,97,0.0,1.0,71,0.00,,,0.00,meteohub,2013-08-11 14:36:00,
2013-08-11 10:42:00,68.5,57.9,30.14,East,97,0.0,2.0,69,0.00,,,0.00,meteohub,2013-08-11 14:42:00,
2013-08-11 10:48:00,68.9,58.3,30.14,East,97,0.0,2.0,69,0.00,,,0.00,meteohub,2013-08-11 14:48:00,
2013-08-11 10:57:00,69.4,54.5,30.13,NNE,13,0.0,5.0,59,0.00,,,0.00,meteohub,2013-08-11 14:57:00,
2013-08-11 11:02:00,69.6,56.5,30.13,NE,54,0.0,5.0,63,0.00,,,0.00,meteohub,2013-08-11 15:02:00,
2013-08-11 11:07:00,70.2,55.6,30.13,NE,38,0.0,11.0,60,0.00,,,0.00,meteohub,2013-08-11 15:07:00,
2013-08-11 11:12:00,70.2,53.8,30.13,NE,36,4.0,11.0,56,0.00,,,0.00,meteohub,2013-08-11 15:12:00,
2013-08-11 11:17:00,70.2,53.2,30.13,NE,34,2.0,11.0,55,0.00,,,0.00,meteohub,2013-08-11 15:17:00,
2013-08-11 11:22:00,70.0,53.6,30.13,NNE,27,0.0,4.0,56,0.00,,,0.00,meteohub,2013-08-11 15:22:00,
2013-08-11 11:27:00,70.3,56.3,30.13,SSE,151,0.0,4.0,61,0.00,,,0.00,meteohub,2013-08-11 15:27:00,
2013-08-11 11:32:00,71.1,59.2,30.13,SSE,150,0.0,4.0,66,0.00,,,0.00,meteohub,2013-08-11 15:32:00,
2013-08-11 11:37:00,71.8,58.1,30.12,East,85,0.0,4.0,62,0.00,,,0.00,meteohub,2013-08-11 15:37:00,
2013-08-11 11:42:00,72.7,59.7,30.12,East,85,1.0,2.0,64,0.00,,,0.00,meteohub,2013-08-11 15:42:00,
2013-08-11 11:47:00,72.9,54.7,30.12,East,85,0.0,2.0,53,0.00,,,0.00,meteohub,2013-08-11 15:47:00,
2013-08-11 11:52:00,73.0,58.3,30.12,East,85,0.0,2.0,60,0.00,,,0.00,meteohub,2013-08-11 15:52:00,
2013-08-11 11:57:00,73.0,54.3,30.12,East,100,0.0,1.0,52,0.00,,,0.00,meteohub,2013-08-11 15:57:00,
2013-08-11 12:05:00,72.9,56.3,30.11,East,100,0.0,1.0,56,0.00,,,0.00,meteohub,2013-08-11 16:05:00,
2013-08-11 12:10:00,72.9,56.3,30.11,East,94,2.0,4.0,56,0.00,,,0.00,meteohub,2013-08-11 16:10:00,
2013-08-11 12:15:00,73.2,57.0,30.11,NE,46,4.0,4.0,57,0.00,,,0.00,meteohub,2013-08-11 16:15:00,
2013-08-11 12:22:00,73.6,58.3,30.11,NE,49,0.0,4.0,59,0.00,,,0.00,meteohub,2013-08-11 16:22:00,
2013-08-11 12:28:00,73.8,59.5,30.11,NE,49,1.0,4.0,61,0.00,,,0.00,meteohub,2013-08-11 16:28:00,
2013-08-11 12:35:00,74.5,55.8,30.10,NE,48,0.0,4.0,52,0.00,,,0.00,meteohub,2013-08-11 16:35:00,
2013-08-11 12:40:00,74.8,57.0,30.10,SSE,154,1.0,5.0,54,0.00,,,0.00,meteohub,2013-08-11 16:40:00,
2013-08-11 12:45:00,75.0,59.2,30.10,ENE,58,0.0,5.0,58,0.00,,,0.00,meteohub,2013-08-11 16:45:00,
2013-08-11 12:50:00,75.2,59.4,30.09,ESE,123,0.0,5.0,58,0.00,,,0.00,meteohub,2013-08-11 16:50:00,
2013-08-11 12:56:00,75.4,60.4,30.09,East,100,0.0,4.0,60,0.00,,,0.00,meteohub,2013-08-11 16:56:00,
2013-08-11 13:02:00,75.6,59.7,30.09,SE,134,0.0,4.0,58,0.00,,,0.00,meteohub,2013-08-11 17:02:00,
2013-08-11 13:07:00,75.7,60.4,30.09,East,92,2.0,3.0,59,0.00,,,0.00,meteohub,2013-08-11 17:07:00,
2013-08-11 13:12:00,75.4,56.5,30.09,NE,52,2.0,4.0,52,0.00,,,0.00,meteohub,2013-08-11 17:12:00,
2013-08-11 13:18:00,75.6,56.7,30.09,NE,52,0.0,4.0,52,0.00,,,0.00,meteohub,2013-08-11 17:18:00,
2013-08-11 13:25:00,75.7,58.5,30.09,NE,34,4.0,4.0,55,0.00,,,0.00,meteohub,2013-08-11 17:25:00,
2013-08-11 13:32:00,76.8,55.6,30.09,SE,138,0.0,6.0,48,0.00,,,0.00,meteohub,2013-08-11 17:32:00,
2013-08-11 13:37:00,76.8,59.4,30.09,SE,138,0.0,6.0,55,0.00,,,0.00,meteohub,2013-08-11 17:37:00,
2013-08-11 13:42:00,76.6,61.2,30.08,East,82,2.0,6.0,59,0.00,,,0.00,meteohub,2013-08-11 17:42:00,
2013-08-11 13:47:00,76.1,58.3,30.09,ESE,117,1.0,6.0,54,0.00,,,0.00,meteohub,2013-08-11 17:47:00,
2013-08-11 13:52:00,75.6,55.0,30.09,NE,37,2.0,6.0,49,0.00,,,0.00,meteohub,2013-08-11 17:52:00,
2013-08-11 13:57:00,75.4,55.4,30.09,East,95,4.0,6.0,50,0.00,,,0.00,meteohub,2013-08-11 17:57:00,
2013-08-11 14:04:00,74.7,53.6,30.09,NNW,329,0.0,12.0,48,0.00,,,0.00,meteohub,2013-08-11 18:04:00,
2013-08-11 14:11:00,74.5,57.2,30.08,ENE,69,0.0,12.0,55,0.00,,,0.00,meteohub,2013-08-11 18:11:00,
2013-08-11 14:16:00,74.1,55.4,30.09,ENE,73,2.0,6.0,52,0.00,,,0.00,meteohub,2013-08-11 18:16:00,
2013-08-11 14:21:00,73.6,55.9,30.09,SE,138,2.0,6.0,54,0.00,,,0.00,meteohub,2013-08-11 18:21:00,
2013-08-11 14:27:00,73.2,54.0,30.08,NNE,21,0.0,8.0,51,0.00,,,0.00,meteohub,2013-08-11 18:27:00,
2013-08-11 14:32:00,73.0,55.9,30.08,NE,40,0.0,8.0,55,0.00,,,0.00,meteohub,2013-08-11 18:32:00,
2013-08-11 14:37:00,73.0,56.5,30.08,NNW,329,0.0,6.0,56,0.00,,,0.00,meteohub,2013-08-11 18:37:00,
2013-08-11 14:42:00,72.9,56.7,30.08,East,88,0.0,6.0,57,0.00,,,0.00,meteohub,2013-08-11 18:42:00,
2013-08-11 14:47:00,73.2,56.7,30.08,ENE,75,0.0,6.0,56,0.00,,,0.00,meteohub,2013-08-11 18:47:00,
2013-08-11 14:53:00,73.6,58.3,30.08,ESE,108,1.0,6.0,59,0.00,,,0.00,meteohub,2013-08-11 18:53:00,
2013-08-11 14:58:00,74.1,56.8,30.08,SE,133,0.0,4.0,55,0.00,,,0.00,meteohub,2013-08-11 18:58:00,
2013-08-11 15:05:00,73.9,56.8,30.07,NE,50,0.0,3.0,55,0.00,,,0.00,meteohub,2013-08-11 19:05:00,
2013-08-11 15:12:00,73.9,55.8,30.07,ESE,104,2.0,5.0,53,0.00,,,0.00,meteohub,2013-08-11 19:12:00,
2013-08-11 15:20:00,74.1,57.4,30.07,SSE,158,0.0,5.0,56,0.00,,,0.00,meteohub,2013-08-11 19:20:00,
2013-08-11 15:25:00,74.8,61.9,30.06,ESE,102,0.0,5.0,64,0.00,,,0.00,meteohub,2013-08-11 19:25:00,
2013-08-11 15:32:00,74.8,61.3,30.06,SE,135,0.0,3.0,63,0.00,,,0.00,meteohub,2013-08-11 19:32:00,
2013-08-11 15:37:00,75.6,58.3,30.07,ESE,122,1.0,4.0,55,0.00,,,0.00,meteohub,2013-08-11 19:37:00,
2013-08-11 15:42:00,76.1,61.2,30.06,ENE,75,0.0,8.0,60,0.00,,,0.00,meteohub,2013-08-11 19:42:00,
2013-08-11 15:47:00,76.3,61.9,30.06,East,84,0.0,8.0,61,0.00,,,0.00,meteohub,2013-08-11 19:47:00,
2013-08-11 15:52:00,76.6,61.2,30.06,East,84,0.0,8.0,59,0.00,,,0.00,meteohub,2013-08-11 19:52:00,
2013-08-11 15:57:00,77.2,57.0,30.06,SSW,196,0.0,1.0,50,0.00,,,0.00,meteohub,2013-08-11 19:57:00,
2013-08-11 16:02:00,78.1,63.1,30.06,SSW,196,0.0,4.0,60,0.00,,,0.00,meteohub,2013-08-11 20:02:00,
2013-08-11 16:07:00,78.3,59.2,30.06,SSW,197,0.0,4.0,52,0.00,,,0.00,meteohub,2013-08-11 20:07:00,
2013-08-11 16:12:00,77.2,58.6,30.06,East,84,0.0,5.0,53,0.00,,,0.00,meteohub,2013-08-11 20:12:00,
2013-08-11 16:17:00,76.6,62.2,30.06,East,84,0.0,5.0,61,0.00,,,0.00,meteohub,2013-08-11 20:17:00,
2013-08-11 16:24:00,76.3,57.9,30.06,East,84,0.0,1.0,53,0.00,,,0.00,meteohub,2013-08-11 20:24:00,
2013-08-11 16:32:00,76.5,61.0,30.06,East,84,0.0,1.0,59,0.00,,,0.00,meteohub,2013-08-11 20:32:00,
2013-08-11 16:37:00,76.5,62.1,30.06,East,84,0.0,1.0,61,0.00,,,0.00,meteohub,2013-08-11 20:37:00,
2013-08-11 16:42:00,76.3,59.9,30.06,ESE,108,0.0,1.0,57,0.00,,,0.00,meteohub,2013-08-11 20:42:00,
2013-08-11 16:50:00,75.9,61.5,30.06,ESE,108,0.0,1.0,61,0.00,,,0.00,meteohub,2013-08-11 20:50:00,
2013-08-11 16:57:00,74.7,62.6,30.06,ESE,108,0.0,1.0,66,0.00,,,0.00,meteohub,2013-08-11 20:57:00,
2013-08-11 17:02:00,74.5,61.9,30.06,ESE,108,0.0,0.0,65,0.00,,,0.00,meteohub,2013-08-11 21:02:00,
2013-08-11 17:08:00,74.1,61.5,30.06,ESE,108,0.0,0.0,65,0.00,,,0.00,meteohub,2013-08-11 21:08:00,
2013-08-11 17:13:00,73.2,61.5,30.06,ESE,108,0.0,1.0,67,0.00,,,0.00,meteohub,2013-08-11 21:13:00,
2013-08-11 17:18:00,72.1,62.2,30.06,East,85,1.0,1.0,71,0.00,,,0.00,meteohub,2013-08-11 21:18:00,
2013-08-11 17:26:00,72.1,59.4,30.06,NE,40,0.0,1.0,64,0.00,,,0.00,meteohub,2013-08-11 21:26:00,
2013-08-11 17:31:00,73.0,59.7,30.05,ESE,122,0.0,4.0,63,0.00,,,0.00,meteohub,2013-08-11 21:31:00,
2013-08-11 17:37:00,73.2,59.4,30.05,ESE,103,0.0,1.0,62,0.00,,,0.00,meteohub,2013-08-11 21:37:00,
2013-08-11 17:42:00,73.6,60.6,30.05,ESE,103,0.0,1.0,64,0.00,,,0.00,meteohub,2013-08-11 21:42:00,
2013-08-11 17:47:00,73.6,60.3,30.05,ESE,103,0.0,1.0,63,0.00,,,0.00,meteohub,2013-08-11 21:47:00,
2013-08-11 17:52:00,71.8,61.0,30.05,ESE,103,0.0,1.0,69,0.00,,,0.00,meteohub,2013-08-11 21:52:00,
2013-08-11 17:57:00,70.5,60.6,30.05,ESE,103,0.0,1.0,71,0.00,,,0.00,meteohub,2013-08-11 21:57:00,
2013-08-11 18:02:00,69.6,61.0,30.05,ESE,104,0.0,1.0,74,0.00,,,0.00,meteohub,2013-08-11 22:02:00,
2013-08-11 18:07:00,69.1,60.4,30.05,WSW,251,1.0,1.0,74,0.00,,,0.00,meteohub,2013-08-11 22:07:00,
2013-08-11 18:12:00,68.4,60.8,30.05,WSW,251,0.0,3.0,77,0.00,,,0.00,meteohub,2013-08-11 22:12:00,
2013-08-11 18:17:00,67.8,60.3,30.05,WSW,251,0.0,3.0,77,0.00,,,0.00,meteohub,2013-08-11 22:17:00,
2013-08-11 18:22:00,67.6,60.3,30.05,WSW,251,0.0,3.0,77,0.00,,,0.00,meteohub,2013-08-11 22:22:00,
2013-08-11 18:27:00,67.5,61.2,30.04,WSW,251,0.0,1.0,80,0.00,,,0.00,meteohub,2013-08-11 22:27:00,
2013-08-11 18:34:00,67.5,60.8,30.04,WSW,252,0.0,1.0,79,0.00,,,0.00,meteohub,2013-08-11 22:34:00,
2013-08-11 18:39:00,66.7,60.8,30.04,WSW,252,0.0,1.0,81,0.00,,,0.00,meteohub,2013-08-11 22:39:00,
2013-08-11 18:44:00,66.0,60.1,30.04,WSW,251,0.0,1.0,81,0.00,,,0.00,meteohub,2013-08-11 22:44:00,
2013-08-11 18:51:00,65.8,60.3,30.04,WSW,251,0.0,1.0,82,0.00,,,0.00,meteohub,2013-08-11 22:51:00,
2013-08-11 18:56:00,65.1,60.1,30.04,WSW,252,0.0,0.0,84,0.00,,,0.00,meteohub,2013-08-11 22:56:00,
2013-08-11 19:02:00,64.6,59.4,30.05,WSW,252,0.0,0.0,83,0.00,,,0.00,meteohub,2013-08-11 23:02:00,
2013-08-11 19:07:00,64.2,59.4,30.05,WSW,251,0.0,0.0,84,0.00,,,0.00,meteohub,2013-08-11 23:07:00,
2013-08-11 19:12:00,64.0,59.4,30.05,WSW,251,0.0,0.0,85,0.00,,,0.00,meteohub,2013-08-11 23:12:00,
2013-08-11 19:19:00,63.9,59.2,30.05,WSW,252,0.0,0.0,85,0.00,,,0.00,meteohub,2013-08-11 23:19:00,
2013-08-11 19:26:00,63.3,59.0,30.05,WSW,251,0.0,0.0,86,0.00,,,0.00,meteohub,2013-08-11 23:26:00,
2013-08-11 19:32:00,63.0,59.0,30.06,WSW,251,0.0,0.0,87,0.00,,,0.00,meteohub,2013-08-11 23:32:00,
2013-08-11 19:39:00,62.4,58.5,30.06,WSW,251,0.0,0.0,87,0.00,,,0.00,meteohub,2013-08-11 23:39:00,
2013-08-11 19:44:00,62.1,58.5,30.06,WSW,251,0.0,1.0,88,0.00,,,0.00,meteohub,2013-08-11 23:44:00,
2013-08-11 19:49:00,61.5,58.3,30.06,WSW,251,0.0,1.0,89,0.00,,,0.00,meteohub,2013-08-11 23:49:00,
2013-08-11 19:57:00,61.0,57.7,30.06,WSW,251,0.0,1.0,89,0.00,,,0.00,meteohub,2013-08-11 23:57:00,
2013-08-11 20:02:00,60.8,57.9,30.06,WSW,251,0.0,0.0,90,0.00,,,0.00,meteohub,2013-08-12 00:02:00,
2013-08-11 20:08:00,60.6,57.7,30.06,WSW,251,0.0,0.0,90,0.00,,,0.00,meteohub,2013-08-12 00:08:00,
2013-08-11 20:16:00,60.6,57.7,30.06,WSW,251,0.0,0.0,90,0.00,,,0.00,meteohub,2013-08-12 00:16:00,
2013-08-11 20:21:00,60.1,57.4,30.07,WSW,251,0.0,0.0,91,0.00,,,0.00,meteohub,2013-08-12 00:21:00,
2013-08-11 20:26:00,60.1,57.4,30.07,WSW,252,0.0,0.0,91,0.00,,,0.00,meteohub,2013-08-12 00:26:00,
2013-08-11 20:32:00,59.5,57.2,30.07,WSW,251,0.0,0.0,92,0.00,,,0.00,meteohub,2013-08-12 00:32:00,
2013-08-11 20:37:00,59.5,57.2,30.07,WSW,251,0.0,0.0,92,0.00,,,0.00,meteohub,2013-08-12 00:37:00,
2013-08-11 20:42:00,59.4,57.0,30.07,WSW,251,0.0,0.0,92,0.00,,,0.00,meteohub,2013-08-12 00:42:00,
2013-08-11 20:47:00,59.2,56.8,30.08,WSW,251,0.0,0.0,92,0.00,,,0.00,meteohub,2013-08-12 00:47:00,
2013-08-11 20:52:00,58.8,56.5,30.08,WSW,251,0.0,0.0,92,0.00,,,0.00,meteohub,2013-08-12 00:52:00,
2013-08-11 20:57:00,58.6,56.7,30.08,WSW,252,0.0,0.0,93,0.00,,,0.00,meteohub,2013-08-12 00:57:00,
2013-08-11 21:02:00,58.5,56.5,30.08,WSW,251,0.0,0.0,93,0.00,,,0.00,meteohub,2013-08-12 01:02:00,
2013-08-11 21:07:00,58.3,56.3,30.08,WSW,252,0.0,0.0,93,0.00,,,0.00,meteohub,2013-08-12 01:07:00,
2013-08-11 21:12:00,58.1,56.3,30.09,WSW,251,0.0,0.0,94,0.00,,,0.00,meteohub,2013-08-12 01:12:00,
2013-08-11 21:17:00,57.9,56.1,30.09,WSW,251,0.0,0.0,94,0.00,,,0.00,meteohub,2013-08-12 01:17:00,
2013-08-11 21:22:00,57.7,55.9,30.09,WSW,251,0.0,0.0,94,0.00,,,0.00,meteohub,2013-08-12 01:22:00,
2013-08-11 21:27:00,57.7,55.9,30.09,WSW,251,0.0,0.0,94,0.00,,,0.00,meteohub,2013-08-12 01:27:00,
2013-08-11 21:32:00,57.6,55.8,30.09,WSW,251,0.0,0.0,94,0.00,,,0.00,meteohub,2013-08-12 01:32:00,
2013-08-11 21:37:00,57.4,55.6,30.09,WSW,251,0.0,0.0,94,0.00,,,0.00,meteohub,2013-08-12 01:37:00,
2013-08-11 21:42:00,57.4,55.9,30.09,WSW,251,0.0,0.0,95,0.00,,,0.00,meteohub,2013-08-12 01:42:00,
2013-08-11 21:47:00,57.4,55.9,30.09,WSW,251,0.0,0.0,95,0.00,,,0.00,meteohub,2013-08-12 01:47:00,
2013-08-11 21:53:00,57.4,55.9,30.10,WSW,251,0.0,0.0,95,0.00,,,0.00,meteohub,2013-08-12 01:53:00,
2013-08-11 22:00:00,57.0,55.6,30.09,WSW,251,0.0,0.0,95,0.00,,,0.00,meteohub,2013-08-12 02:00:00,
2013-08-11 22:04:00,56.8,55.4,30.09,WSW,251,0.0,0.0,95,0.00,,,0.00,meteohub,2013-08-12 02:04:00,
2013-08-11 22:09:00,56.7,55.2,30.09,WSW,251,0.0,0.0,95,0.00,,,0.00,meteohub,2013-08-12 02:09:00,
2013-08-11 22:17:00,56.5,55.0,30.09,WSW,251,0.0,0.0,95,0.00,,,0.00,meteohub,2013-08-12 02:17:00,
2013-08-11 22:22:00,56.5,55.0,30.09,WSW,251,0.0,0.0,95,0.00,,,0.00,meteohub,2013-08-12 02:22:00,
2013-08-11 22:27:00,56.3,54.9,30.09,WSW,251,0.0,0.0,95,0.00,,,0.00,meteohub,2013-08-12 02:27:00,
2013-08-11 22:32:00,56.1,54.7,30.09,WSW,251,0.0,0.0,95,0.00,,,0.00,meteohub,2013-08-12 02:32:00,
2013-08-11 22:37:00,55.9,54.5,30.09,WSW,251,0.0,0.0,95,0.00,,,0.00,meteohub,2013-08-12 02:37:00,
2013-08-11 22:42:00,55.8,54.7,30.09,WSW,251,0.0,0.0,96,0.00,,,0.00,meteohub,2013-08-12 02:42:00,
2013-08-11 22:47:00,55.8,54.7,30.09,WSW,251,0.0,0.0,96,0.00,,,0.00,meteohub,2013-08-12 02:47:00,
2013-08-11 22:52:00,55.8,54.7,30.09,WSW,251,0.0,0.0,96,0.00,,,0.00,meteohub,2013-08-12 02:52:00,
2013-08-11 22:57:00,55.8,54.7,30.10,WSW,251,0.0,0.0,96,0.00,,,0.00,meteohub,2013-08-12 02:57:00,
2013-08-11 23:05:00,55.6,54.5,30.10,WSW,251,0.0,0.0,96,0.00,,,0.00,meteohub,2013-08-12 03:05:00,
2013-08-11 23:12:00,55.8,54.9,30.09,WSW,251,0.0,0.0,97,0.00,,,0.00,meteohub,2013-08-12 03:12:00,
2013-08-11 23:17:00,55.8,54.9,30.09,WSW,251,0.0,0.0,97,0.00,,,0.00,meteohub,2013-08-12 03:17:00,
2013-08-11 23:22:00,55.9,55.0,30.09,WSW,252,0.0,0.0,97,0.00,,,0.00,meteohub,2013-08-12 03:22:00,
2013-08-11 23:27:00,55.9,55.0,30.09,WSW,251,0.0,0.0,97,0.00,,,0.00,meteohub,2013-08-12 03:27:00,
2013-08-11 23:32:00,55.8,54.9,30.09,WSW,252,0.0,0.0,97,0.00,,,0.00,meteohub,2013-08-12 03:32:00,
2013-08-11 23:37:00,55.8,54.9,30.09,WSW,251,0.0,0.0,97,0.00,,,0.00,meteohub,2013-08-12 03:37:00,
2013-08-11 23:42:00,55.8,54.9,30.09,WSW,251,0.0,0.0,97,0.00,,,0.00,meteohub,2013-08-12 03:42:00,
2013-08-11 23:49:00,55.6,54.5,30.09,WSW,251,0.0,0.0,96,0.00,,,0.00,meteohub,2013-08-12 03:49:00,
2013-08-11 23:56:00,55.6,54.7,30.09,WSW,251,0.0,0.0,97,0.00,,,0.00,meteohub,2013-08-12 03:56:00,